Key West, FL

5:13 AM EDT on May 23, 2017 (GMT -0400)
Key West International

Weather History for KEYW - February, 2014

Change the Weather History Date:

Wednesday, February 12, 2014

  Actual Average Record
Temperature  
Mean Temperature 75 °F 71 °F  
Max Temperature 81 °F 76 °F 85 °F (1982)
Min Temperature 69 °F 66 °F 51 °F (1973)
Degree Days  
Heating Degree Days 0 1  
Month to date heating degree days 0 12  
Since 1 July heating degree days 22 63  
Cooling Degree Days 10 6  
Month to date cooling degree days 136 72  
Year to date cooling degree days 293 237  
Growing Degree Days 25 (Base 50)    
Moisture  
Dew Point 69 °F    
Average Humidity 84    
Maximum Humidity 93    
Minimum Humidity 74    
Precipitation  
Precipitation 0.75 in 0.05 in 1.05 in (1937)
Month to date precipitation 0.75 0.61  
Year to date precipitation 7.43 2.65  
Snow  
Snow 0.00 in - - ()
Month to date snowfall 0.0  
Since 1 July snowfall 0.0  
Snow Depth 0.00 in    
Sea Level Pressure  
Sea Level Pressure 29.94 in    
Wind  
Wind Speed 10 mph (SSW)    
Max Wind Speed 32 mph    
Max Gust Speed 48 mph    
Visibility 8 miles    
Events Rain , Thunderstorm    
T = Trace of Precipitation, MM = Missing Value Source: NWS Daily Summary

Daily Weather History Graph

Daily Weather History Graph

Search for Another Location

Airport or City:

Trip Planner

Search our weather history database for the weather conditions in past years. The results will help you decide how hot, cold, wet, or windy it might be!

Date:

Astronomy

Feb. 12, 2014 Rise Set
Actual Time 7:02 AM EST 6:19 PM EST
Civil Twilight 6:39 AM EST 6:43 PM EST
Nautical Twilight 6:12 AM EST 7:10 PM EST
Astronomical Twilight 5:46 AM EST 7:36 PM EST
Moon 4:36 PM EST (2/12) 5:13 AM EST (2/12)
Length of Visible Light 12h 03m
Length of Day
11h 17m
Waxing Gibbous, 95% of the Moon is Illuminated
Feb 12
Waxing Gibbous
Feb 14
Full
Feb 22
Last Quarter
Mar 1
New
Mar 8
First Quarter

Hourly Weather History & Observations

Time (EST) Temp. Heat Index Dew Point Humidity Pressure Visibility Wind Dir Wind Speed Gust Speed Precip Events Conditions
12:53 AM 72.0 °F - 70.0 °F 93% 30.03 in 10.0 mi NNE 4.6 mph - N/A   Clear
1:53 AM 72.0 °F - 70.0 °F 93% 30.01 in 10.0 mi Calm Calm - N/A   Clear
2:53 AM 72.0 °F - 69.1 °F 91% 30.00 in 10.0 mi NNE 3.5 mph - N/A   Partly Cloudy
3:53 AM 73.9 °F - 68.0 °F 82% 29.99 in 10.0 mi ESE 8.1 mph - N/A   Clear
4:53 AM 73.9 °F - 68.0 °F 82% 29.98 in 10.0 mi SE 9.2 mph - N/A   Partly Cloudy
5:53 AM 75.0 °F - 68.0 °F 79% 29.97 in 10.0 mi SE 10.4 mph - N/A   Partly Cloudy
6:53 AM 75.0 °F - 68.0 °F 79% 29.99 in 10.0 mi SE 11.5 mph - N/A   Partly Cloudy
7:53 AM 75.9 °F - 69.1 °F 79% 30.00 in 10.0 mi SSE 11.5 mph - N/A   Clear
8:53 AM 78.1 °F - 70.0 °F 76% 30.01 in 10.0 mi SSE 10.4 mph - N/A   Clear
9:53 AM 79.0 °F - 71.1 °F 77% 30.01 in 10.0 mi SSE 11.5 mph - N/A   Clear
10:53 AM 80.1 °F 83.8 °F 72.0 °F 76% 29.99 in 10.0 mi SE 12.7 mph - N/A   Clear
11:32 AM 75.9 °F - 70.0 °F 82% 29.98 in 5.0 mi SSE 13.8 mph 21.9 mph 0.00 in Rain Rain
11:53 AM 77.0 °F - 71.1 °F 82% 29.97 in 10.0 mi SSE 11.5 mph - 0.01 in   Overcast
12:53 PM 79.0 °F - 72.0 °F 79% 29.93 in 10.0 mi SE 13.8 mph - N/A   Clear
1:53 PM 80.1 °F 83.6 °F 71.1 °F 74% 29.88 in 10.0 mi SSE 15.0 mph - N/A   Clear
2:53 PM 80.1 °F 83.6 °F 71.1 °F 74% 29.87 in 10.0 mi SSE 13.8 mph - N/A   Clear
3:53 PM 79.0 °F - 72.0 °F 79% 29.84 in 10.0 mi SSE 10.4 mph - N/A   Clear
4:53 PM 78.1 °F - 71.1 °F 79% 29.86 in 10.0 mi SSE 9.2 mph - N/A   Clear
5:53 PM 78.1 °F - 72.0 °F 81% 29.87 in 10.0 mi SSE 10.4 mph - N/A   Partly Cloudy
6:53 PM 78.1 °F - 73.0 °F 84% 29.87 in 10.0 mi South 8.1 mph - N/A   Clear
7:53 PM 77.0 °F - 70.0 °F 79% 29.86 in 10.0 mi South 6.9 mph - 0.00 in Rain Light Rain
8:03 PM 75.9 °F - 71.1 °F 85% 29.85 in 10.0 mi SSW 5.8 mph - 0.00 in Rain , Thunderstorm Light Rain
8:38 PM 73.0 °F - 68.0 °F 84% 29.88 in 4.0 mi WSW 11.5 mph - 0.04 in Rain , Thunderstorm Light Thunderstorms and Rain
8:53 PM 73.0 °F - 64.9 °F 76% 29.90 in 10.0 mi West 16.1 mph 21.9 mph 0.05 in Thunderstorm Mostly Cloudy
9:11 PM 71.1 °F - 66.9 °F 87% 29.90 in 6.0 mi SSW 3.5 mph - 0.01 in Rain Light Rain
9:24 PM 71.1 °F - 66.9 °F 87% 29.96 in 9.0 mi WNW 29.9 mph 48.3 mph 0.01 in Rain , Thunderstorm Light Rain
9:32 PM 70.0 °F - 66.9 °F 90% 29.96 in 1.8 mi WNW 23.0 mph 48.3 mph 0.03 in Rain , Thunderstorm Thunderstorms and Rain
9:35 PM 70.0 °F - 66.9 °F 90% 29.96 in 1.0 mi NW 15.0 mph 32.2 mph 0.16 in Rain , Thunderstorm Heavy Thunderstorms and Rain
9:37 PM 69.1 °F - 66.9 °F 93% 29.96 in 0.8 mi WNW 13.8 mph 29.9 mph 0.33 in Rain , Thunderstorm Heavy Thunderstorms and Rain
9:42 PM 69.1 °F - 66.9 °F 93% 29.96 in 1.0 mi WNW 16.1 mph 26.5 mph 0.43 in Rain , Thunderstorm Heavy Rain
9:45 PM 69.1 °F - 66.9 °F 93% 29.96 in 2.0 mi WNW 16.1 mph - 0.45 in Rain , Thunderstorm Heavy Thunderstorms and Rain
9:53 PM 69.1 °F - 66.9 °F 93% 29.96 in 5.0 mi WNW 10.4 mph - 0.48 in Rain , Thunderstorm Thunderstorms and Rain
10:09 PM 69.1 °F - 68.0 °F 96% 29.96 in 4.0 mi WNW 8.1 mph - 0.05 in Rain , Thunderstorm Heavy Rain
10:12 PM 69.1 °F - 68.0 °F 96% 29.96 in 3.0 mi WNW 8.1 mph - 0.06 in Rain Heavy Rain
10:21 PM 69.1 °F - 68.0 °F 96% 29.94 in 2.0 mi West 4.6 mph - 0.14 in Rain Heavy Rain
10:27 PM 69.1 °F - 68.0 °F 96% 29.93 in 3.0 mi NW 3.5 mph - 0.18 in Rain Heavy Rain
10:53 PM 69.1 °F - 69.1 °F 100% 29.89 in 10.0 mi Calm Calm - 0.20 in   Overcast
11:53 PM 71.1 °F - 66.9 °F 87% 29.88 in 10.0 mi South 10.4 mph - 0.01 in   Clear